[[{"header":{"parameterUnit":"m.s-1","parameterCategory":1,"la1":30.2991,"la2":30.254,"lo1":-89.0895,"lo2":-89.0444,"dy":0.0017,"dx":0.0017,"nx":28,"ny":28,"refTime":"2026-01-08T03:00:00:Z","depth":0,"parameterNumber":2,"parameterNumberName":"U-component_of_WINDS"},"data":[0,0,0,0,0,0,0,0,0,0,0,0,0,0,0,0,0,0,0,0,0,0,0,0,0,0,0,0,0,0,0,0,0,0,0,0,0,0,0,0,0,0,0,0,0,0,0,0,0,0,0,0,0,0,0,0,0,0,-2.6986,-2.6986,0,-2.7009,-2.7009,-2.701,-2.7,-2.7,-2.6999,-2.6998,-2.7021,-2.7023,-2.7024,0,0,0,0,0,0,0,0,0,0,0,0,0,-2.6934,-2.6935,-2.6986,-2.6986,-2.6987,-2.7009,-2.7009,-2.701,-2.7,-2.7,-2.6999,-2.6998,-2.7021,-2.7022,-2.7024,0,0,0,0,0,0,0,0,0,0,0,0,0,-2.6957,-2.6935,-2.6986,-2.6985,-2.6985,-2.7009,-2.7009,-2.701,-2.7,-2.7,-2.6999,-2.6998,-2.7021,-2.7022,-2.7024,-2.7051,0,0,-2.7029,-2.703,0,0,0,0,0,0,0,0,-2.6956,-2.6959,-2.6985,-2.6985,-2.6985,-2.7001,-2.6999,-2.7023,-2.7001,-2.6994,-2.6998,-2.6998,-2.7015,-2.7017,-2.7023,-2.7052,-2.7053,-2.7029,-2.703,-2.7031,-2.7031,0,0,0,0,0,0,0,-2.6954,-2.6958,-2.6995,-2.6985,-2.6985,-2.6983,-2.6985,-2.7004,-2.7009,-2.6995,-2.6994,-2.6997,-2.7015,-2.7022,-2.7024,-2.7053,-2.7029,-2.7031,-2.7032,-2.7032,-2.7104,-2.7105,0,0,0,0,0,0,-2.6952,-2.6956,-2.6994,-2.6996,-2.6968,-2.6984,-2.6987,-2.6997,-2.7009,-2.701,-2.6998,-2.6997,-2.7019,-2.7022,-2.7025,-2.7056,-2.7031,-2.7032,-2.7033,-2.7103,-2.7104,-2.7105,0,0,0,0,0,0,-2.6951,-2.6956,-2.6994,-2.6976,-2.6981,-2.6986,-2.6997,-2.6997,-2.7004,-2.7011,-2.7012,-2.7004,-2.7019,-2.7022,-2.7044,-2.7057,-2.7033,-2.7035,-2.7102,-2.7104,-2.7105,-2.712,0,0,0,0,0,0,-2.695,-2.6956,-2.6966,-2.6976,-2.6982,-2.7013,-2.6998,-2.6999,-2.7007,-2.7006,-2.7017,-2.7018,-2.7018,-2.7042,-2.7046,-2.7059,-2.7036,-2.7101,-2.7103,-2.7104,-2.7118,-2.7121,-2.7124,0,0,0,0,0,-2.6948,-2.6969,-2.6966,-2.6971,-2.6994,-2.7013,-2.7016,-2.7017,-2.7008,-2.7018,-2.7023,-2.7017,-2.7055,-2.7044,-2.7049,-2.7062,-2.71,-2.7102,-2.7104,-2.7117,-2.7121,-2.7124,0,0,0,0,0,0,-2.6959,-2.697,-2.6967,-2.6992,-2.7002,-2.7012,-2.7025,-2.7021,-2.7033,-2.7032,-2.7032,-2.7034,-2.7057,-2.7062,-2.7049,-2.7088,-2.7076,-2.7079,-2.7084,-2.7088,-2.7091,-2.7089,-2.7037,0,0,0,0,0,-2.6965,-2.6979,-2.6988,-2.7009,-2.7015,-2.7019,-2.7027,-2.7027,-2.7037,-2.7041,-2.7047,-2.7057,-2.7071,-2.708,-2.7093,-2.7119,-2.7121,-2.7131,-2.7134,-2.7136,-2.7138,-2.7152,-2.7156,-2.7112,-2.7112,-2.7112,0,0,-2.6976,-2.6984,-2.6993,-2.7012,-2.7019,-2.7034,-2.7022,-2.7039,-2.705,-2.7043,-2.7064,-2.7069,-2.708,-2.7104,-2.7115,-2.7109,-2.7152,-2.7139,-2.7141,-2.7142,-2.7155,-2.7159,-2.7163,-2.7113,-2.7113,-2.7113,0,0,-2.7004,-2.7012,-2.703,-2.7038,-2.7049,-2.7052,-2.7057,-2.7067,-2.707,-2.7091,-2.7087,-2.71,-2.7124,-2.7132,-2.7139,-2.7171,-2.7166,-2.7176,-2.7191,-2.7204,-2.7208,-2.7211,-2.7221,-2.7225,-2.7178,-2.7178,-2.7178,0,-2.7016,-2.7039,-2.704,-2.7056,-2.7065,-2.706,-2.7078,-2.7086,-2.7101,-2.7107,-2.71,-2.7131,-2.7138,-2.7163,-2.7171,-2.7177,-2.7182,-2.7173,-2.7207,-2.721,-2.7213,-2.7223,-2.7227,-2.7179,-2.7179,-2.7179,-2.7179,0,-2.7053,-2.7069,-2.7082,-2.7097,-2.7107,-2.7124,-2.7128,-2.7138,-2.7137,-2.7141,-2.7162,-2.7171,-2.7186,-2.7192,-2.7191,-2.7217,-2.7213,-2.7207,-2.7195,-2.7218,-2.7228,-2.7232,-2.718,-2.718,-2.718,-2.7179,0,0,-2.7087,-2.7103,-2.7108,-2.7114,-2.7127,-2.7139,-2.7157,-2.7172,-2.718,-2.7191,-2.7205,-2.7226,-2.7221,-2.7229,-2.7229,-2.7241,-2.7265,-2.7233,-2.7234,-2.7238,-2.7294,-2.7297,-2.7302,-2.7262,-2.7263,-2.7264,-2.7292,0,-2.7115,-2.7145,-2.7147,-2.7175,-2.7189,-2.7185,-2.7201,-2.721,-2.7214,-2.7227,-2.7231,-2.7246,-2.7238,-2.7243,-2.7255,-2.7259,-2.7276,-2.7258,-2.7275,-2.7276,-2.7271,-2.7307,-2.7311,-2.7337,-2.7296,-2.7297,-2.7297,0,-2.7151,-2.7164,-2.7193,-2.7204,-2.721,-2.7223,-2.7237,-2.7249,-2.726,-2.7262,-2.7272,-2.7271,-2.7288,-2.7276,-2.7301,-2.7288,-2.7296,-2.7299,-2.73,-2.7301,-2.7287,-2.7307,-2.7346,-2.735,-2.7303,-2.7303,-2.7302,0,-2.7172,-2.7196,-2.7217,-2.7223,-2.7236,-2.7246,-2.7252,-2.7262,-2.7271,-2.7283,-2.7288,-2.7303,-2.731,-2.7321,-2.7323,-2.7315,-2.7348,-2.7336,-2.7349,-2.7349,-2.7355,-2.7355,-2.7394,-2.7362,-2.7362,-2.7362,-2.7362,0,-2.7203,-2.722,-2.7226,-2.7239,-2.7258,-2.7261,-2.728,-2.7285,-2.7294,-2.7308,-2.7306,-2.7318,-2.7321,-2.7335,-2.7337,-2.7356,-2.736,-2.7362,-2.7362,-2.7361,-2.7361,-2.7365,-2.7363,-2.7363,-2.7363,-2.7363,-2.7362,0,-2.7229,-2.7234,-2.7255,-2.7267,-2.727,-2.7284,-2.7293,-2.7305,-2.731,-2.7326,-2.733,-2.7337,-2.7352,-2.7356,-2.7375,-2.7376,-2.7399,-2.7398,-2.7395,-2.7395,-2.7408,-2.7406,-2.7451,-2.7456,-2.7421,-2.7422,-2.7422,0,-2.7247,-2.7261,-2.7274,-2.7283,-2.7289,-2.7303,-2.7312,-2.7315,-2.7325,-2.7338,-2.7349,-2.7364,-2.7376,-2.7401,-2.7407,-2.7421,-2.742,-2.7435,-2.7422,-2.7421,-2.7419,-2.7418,-2.7419,-2.7437,-2.7437,-2.7437,-2.7438,0,-2.728,-2.7281,-2.7294,-2.7309,-2.732,-2.7331,-2.7341,-2.7349,-2.7353,-2.7364,-2.738,-2.7389,-2.7408,-2.7423,-2.7438,-2.7444,-2.7441,-2.7442,-2.7445,-2.7444,-2.7442,-2.7442,-2.7401,-2.744,-2.744,-2.744,-2.744,-2.744,-2.7302,-2.7313,-2.7324,-2.7339,-2.7348,-2.7358,-2.7369,-2.7375,-2.7389,-2.7404,-2.7405,-2.7422,-2.7433,-2.7452,-2.7459,-2.7472,-2.7468,-2.7473,-2.7475,-2.7476,-2.7476,-2.7441,-2.7475,-2.7475,-2.7475,-2.7475,-2.7475,0,-2.7333,-2.734,-2.7354,-2.7369,-2.738,-2.7378,-2.739,-2.7399,-2.7414,-2.7425,-2.7437,-2.7455,-2.747,-2.7478,-2.7492,-2.7501,-2.75,-2.7505,-2.7504,-2.7505,-2.748,-2.7475,-2.7505,-2.7505,-2.7505,-2.7505,-2.7505,-2.7505,-2.735,-2.737,-2.7373,-2.7397,-2.7404,-2.7421,-2.7427,-2.7437,-2.7445,-2.7465,-2.7478,-2.7483,-2.7492,-2.7507,-2.7521,-2.7523,-2.7528,-2.7533,-2.7534,-2.751,-2.7507,-2.7504,-2.7499,-2.7534,-2.7534,-2.7558,-2.7558,-2.7558]},{"header":{"parameterUnit":"m.s-1","parameterCategory":1,"la1":30.2991,"la2":30.254,"lo1":-89.0895,"lo2":-89.0444,"dy":0.0017,"dx":0.0017,"nx":28,"ny":28,"refTime":"2026-01-08T03:00:00:Z","depth":0,"parameterNumber":3,"parameterNumberName":"V-component_of_WINDS"},"data":[0,0,0,0,0,0,0,0,0,0,0,0,0,0,0,0,0,0,0,0,0,0,0,0,0,0,0,0,0,0,0,0,0,0,0,0,0,0,0,0,0,0,0,0,0,0,0,0,0,0,0,0,0,0,0,0,0,0,3.6726,3.6726,0,3.681,3.6811,3.6812,3.683,3.6829,3.6828,3.6828,3.6915,3.6918,3.6921,0,0,0,0,0,0,0,0,0,0,0,0,0,3.6584,3.6586,3.6725,3.6727,3.6728,3.681,3.6811,3.6812,3.683,3.6829,3.6828,3.6827,3.6914,3.6917,3.6921,0,0,0,0,0,0,0,0,0,0,0,0,0,3.6654,3.6587,3.6725,3.6746,3.6749,3.6809,3.6811,3.6812,3.683,3.6829,3.6828,3.6827,3.6913,3.6917,3.6921,3.6967,0,0,3.6935,3.6937,0,0,0,0,0,0,0,0,3.665,3.666,3.6742,3.6745,3.6748,3.6808,3.6793,3.6864,3.683,3.6799,3.6828,3.6827,3.688,3.6887,3.6905,3.6971,3.6975,3.6935,3.6938,3.694,3.6941,0,0,0,0,0,0,0,3.6645,3.6656,3.6759,3.6743,3.6747,3.6753,3.6762,3.6806,3.6844,3.6802,3.6803,3.6813,3.6882,3.6901,3.6907,3.6976,3.6935,3.6939,3.6941,3.6943,3.7089,3.7091,0,0,0,0,0,0,3.6637,3.6652,3.6756,3.6761,3.6696,3.6756,3.6766,3.679,3.6844,3.6851,3.6814,3.6813,3.6894,3.6902,3.691,3.6971,3.694,3.6944,3.6946,3.7088,3.709,3.7091,0,0,0,0,0,0,3.6633,3.6646,3.6753,3.6707,3.6721,3.676,3.6786,3.6792,3.6811,3.6853,3.686,3.6826,3.6893,3.6904,3.6954,3.6974,3.6946,3.695,3.7087,3.7089,3.709,3.709,0,0,0,0,0,0,3.6629,3.6644,3.6661,3.6707,3.6724,3.6794,3.6787,3.6794,3.6819,3.6819,3.6866,3.6873,3.6894,3.6947,3.6958,3.698,3.6953,3.7085,3.7087,3.709,3.7089,3.7092,3.7095,0,0,0,0,0,3.6624,3.6657,3.6662,3.6674,3.6745,3.6795,3.6804,3.6827,3.682,3.6838,3.6866,3.6871,3.697,3.6952,3.6965,3.6988,3.7084,3.7087,3.709,3.7087,3.7091,3.7095,0,0,0,0,0,0,3.6611,3.6663,3.6669,3.6717,3.6752,3.6797,3.6821,3.683,3.6866,3.6865,3.6893,3.6903,3.6952,3.6975,3.6954,3.7037,3.7027,3.7032,3.7021,3.7025,3.7028,3.7022,3.6957,0,0,0,0,0,3.6614,3.6649,3.6693,3.6731,3.6748,3.6782,3.6804,3.6819,3.6856,3.687,3.6901,3.6937,3.6977,3.7002,3.704,3.7092,3.7105,3.7114,3.7117,3.7119,3.7124,3.7158,3.7164,3.71,3.71,3.71,0,0,3.6619,3.6652,3.6672,3.6729,3.6758,3.6796,3.6793,3.6832,3.6861,3.6876,3.6926,3.695,3.6992,3.7044,3.7069,3.7065,3.7145,3.7123,3.7125,3.7128,3.7162,3.7168,3.7173,3.7102,3.7102,3.7102,0,0,3.665,3.6677,3.6714,3.6743,3.6786,3.6809,3.6818,3.6864,3.6881,3.6931,3.6944,3.698,3.7046,3.7077,3.7101,3.7148,3.7157,3.716,3.7176,3.7209,3.7214,3.7219,3.7239,3.7246,3.7165,3.7165,3.7165,0,3.6652,3.6708,3.6732,3.6771,3.6798,3.6814,3.6853,3.688,3.6934,3.6953,3.6947,3.7034,3.7063,3.7125,3.7137,3.7155,3.7169,3.7155,3.7211,3.7216,3.7221,3.7241,3.7248,3.7165,3.7165,3.7165,3.7165,0,3.671,3.6749,3.6774,3.6827,3.6856,3.6895,3.6927,3.6954,3.6967,3.6991,3.7045,3.7081,3.7129,3.7144,3.7157,3.721,3.7206,3.7206,3.7196,3.7227,3.7246,3.7254,3.7165,3.7165,3.7165,3.7165,0,0,3.6732,3.6801,3.681,3.6836,3.6887,3.6918,3.696,3.7007,3.7032,3.7069,3.7107,3.7165,3.7166,3.7194,3.721,3.7239,3.7279,3.7235,3.7237,3.7245,3.7344,3.7346,3.7354,3.7284,3.7286,3.7287,3.7341,0,3.6771,3.6845,3.687,3.6932,3.6971,3.6989,3.7026,3.7063,3.7087,3.7125,3.7152,3.7194,3.7191,3.7208,3.7237,3.7268,3.7299,3.7264,3.7322,3.7324,3.7313,3.7363,3.7364,3.7413,3.7349,3.735,3.7351,0,3.6825,3.6865,3.6932,3.6982,3.6999,3.7032,3.708,3.7115,3.7158,3.7175,3.7208,3.7224,3.7271,3.7258,3.7325,3.73,3.7326,3.7345,3.7348,3.7356,3.734,3.7375,3.7429,3.7438,3.7362,3.7361,3.736,0,3.6839,3.6909,3.6959,3.6981,3.704,3.7063,3.7089,3.7131,3.716,3.7202,3.7222,3.7269,3.7295,3.7332,3.7362,3.7349,3.7428,3.7416,3.7445,3.7445,3.7462,3.7461,3.7524,3.7474,3.7474,3.7474,3.7474,0,3.688,3.6921,3.6967,3.6998,3.7046,3.7075,3.7122,3.7149,3.7187,3.7226,3.7244,3.728,3.7315,3.7357,3.738,3.7435,3.7445,3.7462,3.7468,3.7462,3.746,3.748,3.7478,3.7476,3.7475,3.7475,3.7475,0,3.6903,3.6935,3.6992,3.7044,3.7058,3.7092,3.7138,3.717,3.7196,3.7245,3.7259,3.7301,3.7351,3.7384,3.7447,3.7463,3.7524,3.7528,3.751,3.7513,3.7542,3.754,3.7622,3.7636,3.7574,3.7575,3.7575,0,3.6928,3.696,3.7017,3.7045,3.7071,3.7114,3.7145,3.7176,3.7207,3.7261,3.7288,3.734,3.7383,3.7463,3.7501,3.7551,3.7558,3.7583,3.7565,3.756,3.7562,3.7561,3.7566,3.7586,3.7587,3.7587,3.7587,0,3.697,3.6986,3.7028,3.7078,3.7114,3.7154,3.7194,3.7216,3.7255,3.7289,3.7341,3.7375,3.7442,3.7495,3.7549,3.7578,3.7591,3.7593,3.7603,3.7598,3.7587,3.7597,3.7521,3.7591,3.7591,3.759,3.759,3.759,3.6997,3.7029,3.7075,3.7123,3.7157,3.7196,3.723,3.7262,3.7306,3.7363,3.738,3.7435,3.7483,3.7557,3.7588,3.7633,3.7631,3.7644,3.7648,3.7651,3.7654,3.7579,3.7643,3.7643,3.7643,3.7643,3.7643,0,3.7043,3.7075,3.7119,3.7176,3.7215,3.7224,3.727,3.7303,3.7351,3.7394,3.7437,3.75,3.7553,3.7595,3.765,3.7679,3.7687,3.7693,3.7692,3.7699,3.7651,3.7639,3.7686,3.7686,3.7686,3.7686,3.7686,3.7686,3.7072,3.7127,3.7148,3.7222,3.7254,3.7309,3.7335,3.7372,3.7407,3.7476,3.752,3.7548,3.7593,3.7652,3.7701,3.7713,3.7734,3.7739,3.7752,3.7707,3.7702,3.7697,3.7686,3.7742,3.7743,3.7797,3.7797,3.7798]}]]